CW8027 Weather Reports


time (UTC)temp
F
wind
direction
speed
knots
gust
knots
rain 1hr
in
rain 24hr
in
rain mn
in
humidity
%
barometer
mb
20260507051043 44 212 3.5 7.8 0.00 1.22 0.00 86 1007.3
20260507050048 44 194 4.3 6.1 0.00 1.22 0.00 86 1007.4
20260507045025 45 244 2.6 7.0 0.00 1.22 0.00 86 1007.6
20260507044033 45 172 3.5 7.8 0.00 1.22 0.00 86 1007.8
20260507043034 45 218 4.3 9.6 0.00 1.22 0.00 86 1007.8
20260507042045 45 292 5.2 8.7 0.00 1.22 0.00 86 1008.0
20260507041026 45 215 5.2 8.7 0.00 1.22 0.00 86 1008.0
20260507040055 45 250 2.6 10.4 0.00 1.22 0.24 86 1008.1
20260507035045 45 258 4.3 7.0 0.00 1.22 0.24 86 1008.1
20260507034026 45 237 3.5 7.0 0.00 1.22 0.24 86 1008.1
20260507033036 45 223 5.2 8.7 0.00 1.22 0.24 86 1008.3
20260507032036 45 207 3.5 5.2 0.00 1.22 0.24 85 1008.4
20260507031047 45 223 3.5 6.1 0.00 1.22 0.24 85 1008.3
20260507030052 45 213 1.7 7.0 0.00 1.22 0.24 84 1008.4
20260507025035 45 244 4.3 7.0 0.00 1.22 0.24 84 1008.3
20260507024044 45 251 5.2 7.8 0.00 1.22 0.24 84 1008.4
20260507023042 45 204 2.6 7.0 0.00 1.22 0.24 83 1008.5
20260507022052 46 200 2.6 7.0 0.00 1.22 0.24 83 1008.5
20260507021033 46 221 2.6 7.8 0.00 1.22 0.24 82 1008.6
20260507020044 46 229 5.2 7.8 0.00 1.22 0.24 81 1008.6
20260507015025 46 239 4.3 8.7 0.00 1.22 0.24 81 1008.8
20260507014051 46 216 4.3 8.7 0.00 1.22 0.24 81 1008.7
20260507013032 46 240 3.5 7.8 0.00 1.22 0.24 80 1008.9
20260507012042 46 215 3.5 7.8 0.00 1.22 0.24 80 1008.8
20260507011043 46 190 2.6 7.8 0.00 1.22 0.24 80 1008.7
20260507010050 46 179 2.6 7.8 0.00 1.22 0.24 80 1008.8
20260507005030 46 197 3.5 7.0 0.00 1.22 0.24 79 1008.5
20260507004038 46 200 4.3 7.8 0.00 1.22 0.24 78 1008.3
20260507003033 46 190 3.5 9.6 0.00 1.22 0.24 78 1008.3
20260507002041 46 190 3.5 7.8 0.00 1.22 0.24 78 1008.3
20260507001042 47 193 1.7 4.3 0.00 1.22 0.24 78 1007.9
20260507000031 47 223 0.9 7.8 0.00 1.22 0.24 77 1007.8
20260506235031 47 267 4.3 7.8 0.00 1.22 0.24 78 1007.8
20260506234104 47 267 1.7 4.3 0.00 1.22 0.24 78 1007.9
20260506233025 47 185 1.7 6.1 0.00 1.22 0.24 78 1007.9
20260506232052 47 244 2.6 6.1 0.00 1.22 0.24 79 1007.9
20260506231042 47 185 3.5 7.0 0.00 1.22 0.24 79 1007.7
20260506230043 47 200 1.7 5.2 0.00 1.22 0.24 78 1007.6
20260506225028 48 227 4.3 6.1 0.00 1.22 0.24 77 1007.6
20260506224029 47 216 4.3 6.1 0.00 1.22 0.24 74 1007.8
20260506223100 48 238 1.7 5.2 0.00 1.22 0.24 75 1007.5
20260506222044 48 212 3.5 6.1 0.00 1.22 0.24 75 1007.8
20260506221025 48 275 4.3 7.0 0.00 1.22 0.24 75 1007.8
20260506220035 48 272 2.6 4.3 0.00 1.22 0.24 74 1007.7
20260506215040 48 279 1.7 3.5 0.00 1.22 0.24 76 1007.9
20260506214050 47 202 1.7 5.2 0.00 1.22 0.24 75 1007.8
20260506213029 47 243 3.5 7.0 0.00 1.22 0.24 75 1007.8
20260506212036 47 286 2.6 6.1 0.00 1.22 0.24 77 1007.7
20260506211031 46 289 0.9 6.1 0.00 1.22 0.24 77 1007.8
20260506210041 46 238 2.6 7.0 0.00 1.22 0.24 76 1007.8
20260506205040 46 254 2.6 5.2 0.00 1.22 0.24 76 1008.0
20260506204030 46 219 2.6 6.1 0.00 1.22 0.24 78 1007.9
20260506203030 46 261 3.5 6.1 0.00 1.22 0.24 78 1008.0
20260506202038 46 277 3.5 5.2 0.04 1.22 0.24 79 1008.1
20260506201038 46 335 2.6 6.1 0.04 1.22 0.24 81 1008.2
20260506200028 46 292 3.5 6.1 0.04 1.22 0.24 82 1008.3
20260506195024 45 256 3.5 7.0 0.04 1.22 0.24 83 1008.2
20260506194034 45 267 3.5 6.1 0.04 1.22 0.24 84 1008.4
20260506193035 45 289 3.5 7.0 0.04 1.22 0.24 83 1008.3
20260506192040 45 294 4.3 6.1 0.00 1.18 0.24 83 1008.4
20260506191050 46 284 3.5 5.2 0.00 1.18 0.24 82 1008.4
20260506190051 45 271 1.7 3.5 0.00 1.18 0.24 81 1008.4
20260506185034 45 271 3.5 6.1 0.00 1.18 0.24 82 1008.5
20260506184034 46 264 1.7 4.3 0.00 1.18 0.24 81 1008.4
20260506183044 46 165 1.7 2.6 0.00 1.18 0.24 83 1008.3
20260506182044 46 161 2.6 4.3 0.00 1.18 0.24 83 1008.2
20260506181034 46 202 3.5 6.1 0.00 1.18 0.24 83 1008.3
20260506180106 47 120 0.9 2.6 0.00 1.18 0.24 85 1008.4
20260506175026 48 165 1.7 4.3 0.00 1.18 0.24 87 1008.5
20260506174051 47 159 0.9 1.7 0.00 1.18 0.24 89 1008.6
20260506173031 46 151 0.9 2.6 0.00 1.18 0.24 88 1008.9
20260506172041 45 181 2.6 3.5 0.00 1.18 0.24 88 1009.1
20260506171113 45 171 0.0 1.7 0.00 1.18 0.24 89 1009.2
20260506170032 44 171 0.9 3.5 0.00 1.18 0.24 89 1009.3
20260506165103 44 249 0.0 5.2 0.00 1.18 0.24 89 1009.5
20260506164038 44 156 0.9 4.3 0.04 1.18 0.24 89 1009.5
20260506163049 45 175 0.9 2.6 0.04 1.18 0.24 91 1009.5
20260506162034 43 157 0.9 3.5 0.08 1.18 0.24 89 1009.7
20260506161044 44 168 0.9 2.6 0.12 1.18 0.24 91 1009.9
20260506160045 43 171 0.9 4.3 0.16 1.18 0.24 89 1009.8
20260506155033 42 161 0.9 6.1 0.16 1.18 0.24 90 1010.1
20260506154033 42 190 3.5 7.0 0.16 1.14 0.23 89 1010.1
20260506153045 42 190 3.5 7.0 0.20 1.14 0.23 89 1010.1
20260506152041 42 180 3.5 5.2 0.20 1.10 0.22 89 1010.1
20260506151031 42 182 3.5 7.0 0.20 1.06 0.21 89 1010.3
20260506150032 42 244 2.6 6.1 0.24 1.02 0.20 89 1010.2
20260506145043 42 172 3.5 7.0 0.28 1.02 0.20 89 1010.3
20260506144025 42 191 2.6 6.1 0.28 0.98 0.20 89 1010.1
20260506143055 43 217 2.6 5.2 0.28 0.94 0.19 89 1010.0
20260506142046 42 225 4.3 7.8 0.28 0.91 0.18 89 1009.9
20260506141105 43 208 1.7 7.0 0.28 0.87 0.17 89 1010.1
20260506140029 42 225 3.5 7.0 0.24 0.83 0.16 89 1010.0
20260506135031 43 184 3.5 6.1 0.24 0.79 0.15 88 1010.2
20260506134042 43 185 4.3 7.8 0.20 0.75 0.14 88 1009.9
20260506133024 43 198 2.6 7.0 0.20 0.71 0.13 88 1009.9
20260506132034 43 246 2.6 7.0 0.24 0.67 0.13 88 1009.8
20260506131036 43 186 3.5 7.0 0.24 0.63 0.12 87 1009.9
20260506130042 43 195 4.3 7.0 0.20 0.59 0.11 87 1009.6
20260506125040 43 189 2.6 6.1 0.20 0.55 0.10 87 1009.6
20260506124051 43 211 4.3 6.1 0.24 0.55 0.10 87 1009.8
20260506123041 43 148 1.7 6.1 0.24 0.51 0.09 86 1009.6
20260506122041 44 178 2.6 7.8 0.16 0.43 0.08 86 1009.5
20260506121050 44 182 2.6 5.2 0.16 0.39 0.07 86 1009.8
20260506120054 44 194 3.5 4.3 0.20 0.47 0.07 86 1009.9
20260506115034 44 228 2.6 5.2 0.20 0.43 0.06 85 1010.0
20260506114044 44 234 4.3 7.8 0.20 0.39 0.06 86 1010.1
20260506113025 44 246 1.7 5.2 0.16 0.35 0.05 86 1010.2
20260506112035 44 229 3.5 7.0 0.20 0.35 0.05 85 1010.2
20260506111035 45 253 3.5 8.7 0.16 0.31 0.04 85 1010.0
20260506110045 45 267 2.6 8.7 0.12 0.28 0.03 84 1009.9
20260506105041 45 232 4.3 8.7 0.12 0.24 0.02 84 1009.9
20260506104031 46 253 3.5 8.7 0.08 0.20 0.02 85 1009.6
20260506103030 46 263 3.5 7.0 0.08 0.20 0.02 85 1009.4
20260506102041 46 188 2.6 7.0 0.04 0.16 0.01 85 1009.2
20260506101040 46 229 2.6 5.2 0.04 0.16 0.01 85 1009.2
20260506100030 47 225 3.5 8.7 0.04 0.16 0.01 84 1009.3
20260506095031 47 248 5.2 10.4 0.00 0.12 0.00 83 1009.2
20260506094100 47 229 4.3 12.2 0.00 0.12 0.00 81 1009.3
20260506093050 48 223 5.2 11.3 0.00 0.12 0.00 80 1009.3
20260506092029 48 242 5.2 7.8 0.00 0.12 0.00 80 1009.1
20260506091058 48 196 4.3 8.7 0.00 0.12 0.00 80 1009.0
20260506090049 48 269 4.3 7.0 0.00 0.12 0.00 80 1009.0
20260506085033 48 223 3.5 12.2 0.00 0.12 0.00 80 1008.8
20260506084031 48 271 3.5 12.2 0.00 0.12 0.00 80 1009.0
20260506083041 48 269 5.2 10.4 0.00 0.12 0.00 79 1009.1
20260506082050 48 214 7.0 13.0 0.00 0.12 0.00 79 1009.3
20260506081054 48 233 3.5 9.6 0.00 0.12 0.00 79 1009.1
20260506080104 48 229 4.3 8.7 0.00 0.12 0.00 79 1008.9
20260506073041 49 228 6.1 12.2 0.00 0.12 0.00 79 1009.1
20260506072041 49 251 5.2 15.6 0.00 0.12 0.00 79 1008.9
20260506071050 49 231 7.0 13.9 0.00 0.12 0.00 79 1008.9